GFSNE_2pvu_pres_057.txt.gz
Presure
240 237 255 263 269 273 289 298 308 377 440 421 403 427 444 435 424 412 406 402 407 406 395 402 413 423 427 435 445 453 320 307 283 274 225 225 203 196
243 256 264 267 273 282 293 354 385 442 422 397 455 426 403 396 392 390 386 386 389 384 381 384 384 390 399 408 420 433 438 445 317 284 279 255 222 202
265 265 260 278 277 311 350 418 430 405 394 446 413 395 370 359 353 353 353 357 354 351 357 365 367 370 377 387 395 404 415 422 445 354 305 283 263 240
265 269 280 279 290 373 417 428 396 385 416 414 363 351 350 355 355 354 351 353 354 353 359 361 360 356 360 368 378 386 392 401 406 434 465 203 278 269
279 278 282 297 386 433 428 395 385 395 402 367 347 347 336 333 335 338 346 355 362 363 362 361 369 276 380 381 362 369 378 382 390 404 431 471 320 298
275 282 295 369 440 423 395 382 372 405 371 348 337 325 324 326 324 329 416 408 400 400 400 399 397 393 396 206 377 384 373 373 375 389 398 429 466 330
282 287 306 427 427 403 381 373 370 383 355 340 327 321 319 317 317 377 393 380 371 406 412 389 392 394 391 401 409 403 375 390 383 359 389 395 439 467
318 345 420 430 410 383 372 366 395 365 344 330 318 314 311 311 314 400 418 405 370 379 360 351 364 355 357 368 374 385 398 420 438 385 383 387 406 444
414 419 428 409 386 373 365 355 378 355 337 323 315 311 307 309 308 380 402 367 355 347 342 339 362 368 372 355 361 369 385 391 418 443 383 383 383 419
420 425 412 390 371 363 354 387 362 346 334 322 313 305 309 308 306 376 375 351 344 354 359 352 366 354 354 415 462 468 498 476 438 459 474 377 376 393
413 416 394 370 363 355 352 373 352 341 331 318 312 307 307 308 307 339 375 347 343 349 360 348 340 404 455 449 452 461 478 470 463 461 465 419 370 372
395 397 376 363 357 350 341 365 345 335 328 317 310 309 308 307 306 327 374 345 333 349 346 338 330 428 450 457 458 463 471 472 453 454 458 438 360 361
384 384 364 354 350 344 380 359 344 332 324 315 308 306 306 304 307 322 384 345 335 341 350 341 338 458 453 449 452 454 456 465 450 441 458 415 367 356
377 370 355 348 343 341 373 355 342 330 321 318 315 308 307 304 310 320 383 345 332 340 350 334 334 453 446 436 437 438 442 449 453 447 453 394 367 355
374 361 350 345 340 353 372 353 339 329 324 323 313 315 316 319 320 320 381 342 333 341 340 347 336 438 436 433 432 433 432 440 446 448 411 377 363 365
357 356 347 341 337 359 370 352 334 333 321 321 323 317 321 322 307 325 370 337 336 337 339 346 327 404 422 420 419 420 419 418 427 416 371 363 364 359
351 353 345 340 333 352 371 353 337 331 324 318 320 309 308 321 304 356 365 333 335 337 342 346 323 345 409 399 403 407 409 410 387 360 353 356 354 366
354 353 340 337 332 334 376 359 342 331 324 320 313 311 304 324 301 325 360 331 335 335 340 348 322 329 380 394 395 406 389 359 352 350 347 340 367 379
364 357 341 334 330 326 378 363 343 333 321 319 311 311 308 322 299 320 361 330 330 330 336 342 346 324 332 346 350 346 344 342 341 335 334 346 368 377
373 357 345 333 331 321 326 365 359 338 326 319 314 313 308 322 296 316 371 331 326 325 326 335 350 334 323 326 333 333 330 328 324 334 342 348 355 369
334 357 348 337 330 324 318 325 354 346 335 320 316 308 306 313 296 314 385 336 323 318 320 328 338 355 332 315 327 324 327 327 327 330 334 340 345 355
333 330 347 341 332 326 321 312 327 343 330 329 320 311 306 308 301 306 313 349 325 316 310 312 347 337 355 337 332 319 317 323 328 328 329 333 338 346
337 334 330 342 333 329 323 316 307 324 323 327 324 317 313 308 320 295 312 407 335 318 308 306 316 346 347 347 354 351 339 337 342 345 349 349 353 356

GFSNE_2pvu_pres_063.txt.gz
Presure
239 239 235 222 219 221 258 266 263 261 269 275 296 335 428 438 443 435 431 423 403 373 398 433 424 423 428 434 441 451 462 471 485 346 334 315 298 258
246 246 209 221 234 261 265 261 273 286 293 320 400 436 423 438 432 421 406 391 387 417 414 388 375 373 373 374 384 410 425 438 452 469 484 327 329 304
239 207 222 247 270 258 265 276 290 300 333 437 440 443 430 429 416 394 385 379 415 394 371 362 359 354 353 355 361 372 374 399 420 436 452 469 373 317
203 228 253 275 263 269 283 298 329 385 443 446 430 425 416 406 387 380 372 408 385 360 349 341 338 338 340 341 344 351 367 382 381 405 419 433 453 365
249 259 267 270 272 281 296 353 443 446 432 423 415 407 392 378 373 369 398 381 362 347 334 327 329 330 330 334 338 425 454 383 382 376 395 408 424 446
260 270 272 271 282 297 432 429 426 423 413 404 398 386 373 368 366 392 376 365 347 338 325 325 324 324 331 336 451 447 401 433 425 383 377 388 403 421
272 266 276 292 305 439 421 417 413 399 395 392 383 368 363 360 365 384 369 344 337 329 321 327 316 322 329 391 397 400 405 408 423 436 383 379 384 400
263 268 298 400 423 409 401 415 399 391 386 383 365 360 357 355 382 365 358 341 333 326 317 323 316 323 323 393 373 367 368 375 247 405 428 391 383 382
278 314 424 418 397 372 409 405 395 387 384 365 356 356 350 380 368 353 348 333 330 321 313 318 319 320 322 379 361 358 359 363 372 379 395 415 435 385
336 421 411 387 364 412 395 390 390 382 373 359 353 350 352 372 359 346 339 328 327 322 301 311 320 326 323 375 357 350 354 363 367 372 386 391 405 429
415 406 374 362 403 400 376 366 387 372 365 355 352 346 344 369 354 342 336 326 325 325 317 325 327 331 380 369 349 343 359 376 375 374 379 389 391 399
393 361 376 398 391 389 360 359 379 367 360 352 349 344 377 364 349 339 329 325 326 322 319 327 336 322 364 354 343 349 371 373 372 367 370 387 386 392
363 388 393 389 382 377 351 348 374 365 357 347 345 343 340 366 347 340 329 324 327 325 316 331 316 373 352 339 350 363 365 357 462 462 479 491 470 384
396 389 388 374 370 370 345 344 341 363 355 346 342 342 338 363 348 336 327 324 322 311 328 312 369 348 342 346 355 356 412 444 443 447 458 466 473 480
398 382 368 359 360 362 346 343 347 350 354 342 340 338 365 363 344 333 325 318 317 306 324 326 348 340 345 348 351 344 440 441 433 431 440 450 453 458
377 362 360 359 355 352 348 341 343 337 354 340 338 335 338 362 342 324 321 314 316 325 313 358 339 339 346 353 343 394 415 428 427 436 433 437 442 445
369 445 435 420 377 305 343 331 336 335 355 339 334 333 327 361 341 327 319 309 317 321 309 349 333 336 345 348 333 385 405 412 420 421 425 431 439 437
421 417 431 421 398 361 342 335 342 338 331 340 333 331 322 345 347 329 319 311 304 315 313 342 328 331 343 346 323 368 400 397 403 410 416 425 425 430
387 377 405 404 391 369 350 349 347 339 327 325 332 328 324 321 357 335 324 313 304 311 313 341 326 325 336 345 325 343 362 389 394 401 408 420 426 429
357 351 347 382 388 383 375 360 349 340 331 325 331 328 325 315 333 342 329 315 308 309 309 345 324 322 330 347 325 335 339 349 360 374 382 392 398 398
393 380 356 347 359 368 367 359 350 341 337 328 325 329 325 318 316 334 329 318 305 310 305 352 327 320 325 352 333 327 332 336 342 343 348 354 360 364
441 426 400 357 344 337 334 331 331 335 337 330 322 330 327 322 312 319 321 318 306 315 296 359 333 317 318 337 344 319 323 326 330 336 339 339 341 342
336 331 415 393 359 344 335 330 328 327 324 330 327 323 329 322 317 307 319 330 313 313 294 305 344 321 310 344 341 334 312 326 321 324 322 325 330 332

GFSNE_2pvu_pres_069.txt.gz
Presure
206 199 205 203 207 224 237 236 246 251 243 282 298 300 286 314 447 424 404 408 440 434 429 427 432 431 432 433 433 436 438 441 445 447 454 466 479 322
206 205 204 201 224 235 245 242 248 248 277 290 305 292 350 427 408 416 432 424 414 408 410 414 412 409 404 402 400 400 401 405 409 412 420 430 443 455
204 206 198 225 234 246 240 243 249 269 289 305 297 315 415 411 429 428 418 410 406 401 399 395 383 381 383 385 386 387 389 410 415 419 421 429 439 452
209 234 226 230 246 242 254 247 260 285 299 303 302 412 402 418 421 409 395 398 397 396 381 374 371 374 375 376 376 414 407 383 217 379 367 390 402 420
222 224 226 245 242 261 245 259 281 296 305 304 409 399 402 409 408 392 375 397 392 377 372 370 369 376 403 402 396 389 370 360 356 296 357 362 374 384
227 219 240 242 259 243 257 276 293 305 300 372 402 391 407 398 394 372 384 389 376 373 369 367 399 386 382 384 381 362 356 347 342 342 346 348 352 359
213 240 242 253 243 256 274 288 313 298 369 404 389 406 398 382 383 362 387 379 367 370 362 395 382 370 369 369 360 350 346 337 338 334 336 344 345 347
240 241 258 240 256 273 288 315 295 357 405 393 399 391 376 368 373 356 377 372 365 365 388 383 377 366 360 354 350 343 334 332 330 331 337 337 340 344
240 246 240 258 269 288 313 296 352 406 396 395 389 374 364 358 368 353 364 370 363 362 385 368 369 362 356 344 338 336 338 336 333 329 333 332 338 348
240 240 260 266 288 311 297 363 408 399 395 390 377 370 363 355 363 352 355 364 361 360 396 367 361 359 356 344 337 334 335 336 332 332 337 345 356 355
238 259 272 290 306 294 367 414 403 394 390 377 373 409 397 361 355 349 350 359 353 352 395 375 348 348 349 338 338 336 339 344 338 349 352 344 342 386
260 275 289 301 306 360 416 403 394 387 386 401 435 425 402 362 346 348 342 354 349 345 389 363 349 336 340 337 339 332 325 335 339 334 377 373 376 381
278 294 296 307 432 414 400 395 428 429 423 413 414 423 400 364 341 342 335 348 345 342 378 351 342 337 329 332 333 317 332 328 365 359 359 361 366 370
289 299 309 422 414 400 430 417 413 428 400 386 435 420 399 363 343 336 338 348 344 335 366 348 337 331 330 320 328 333 347 353 354 360 364 366 371 375
293 311 431 416 436 424 406 386 380 382 385 362 356 416 393 357 345 335 339 346 341 332 360 339 337 329 322 324 327 340 347 344 356 357 353 422 437 445
320 437 419 440 416 398 387 387 376 364 360 348 351 371 383 358 345 337 340 342 341 332 354 333 333 328 320 324 316 346 336 350 350 343 394 418 426 432
433 417 423 420 393 379 398 469 432 408 370 361 360 352 378 359 346 341 337 336 337 331 358 343 325 322 319 322 336 335 333 352 338 350 396 411 419 427
422 426 415 398 382 371 374 374 399 386 370 394 372 355 379 363 351 344 335 332 333 327 328 350 333 319 318 312 346 330 339 345 336 348 389 407 412 422
421 456 427 410 406 389 370 361 349 343 337 329 377 356 368 367 353 343 332 329 330 326 321 350 332 319 321 306 340 325 350 337 333 343 377 402 411 417
459 445 448 429 407 385 366 354 344 340 333 331 377 356 348 361 348 340 332 327 330 327 317 335 333 318 319 305 338 322 352 333 331 338 354 391 406 415
376 364 360 374 393 377 363 351 345 337 333 328 320 358 345 335 335 334 333 326 329 328 316 322 328 318 325 303 336 322 348 334 326 332 340 371 398 413
373 359 353 356 360 359 359 351 345 337 335 330 325 343 349 335 329 327 332 328 327 328 322 313 326 318 318 302 339 320 337 336 323 326 334 348 374 401
366 364 359 377 367 359 349 344 343 336 334 338 332 325 360 345 332 329 324 327 325 326 327 313 318 322 309 303 337 322 319 341 324 320 326 332 347 368

GFSNE_2pvu_pres_075.txt.gz
Presure
196 194 203 197 196 200 200 209 218 211 205 208 216 227 241 248 268 251 258 265 289 339 352 363 441 432 430 420 416 410 409 414 424 428 436 448 454 452
197 197 194 196 202 209 217 208 208 213 208 216 224 244 245 266 251 257 265 292 343 344 427 428 424 422 405 404 398 387 412 410 415 419 424 432 439 452
204 202 205 214 206 215 206 200 215 214 222 220 245 244 265 243 257 262 292 348 343 439 432 420 416 403 390 397 383 402 403 399 397 398 402 409 422 435
200 206 213 194 219 215 204 211 219 217 224 245 243 259 241 257 262 294 351 338 438 426 416 411 406 392 377 381 375 398 390 388 388 389 393 394 398 403
207 213 211 221 208 203 205 216 216 226 249 252 259 243 258 259 286 347 333 442 427 412 404 399 397 380 373 374 373 388 382 382 382 389 394 392 392 396
207 201 219 203 202 208 215 218 227 251 253 256 243 256 259 289 305 337 434 423 414 406 404 397 387 375 372 371 370 379 372 379 403 402 401 405 410 394
203 210 201 207 210 214 221 227 249 251 254 240 255 258 284 294 342 430 414 439 441 433 425 407 392 396 377 366 365 343 367 382 396 386 384 388 397 402
205 201 208 221 217 228 231 249 248 248 235 249 253 274 300 337 428 419 440 431 414 427 423 414 416 403 379 362 364 367 363 391 389 380 375 380 385 387
209 182 224 222 237 257 250 252 251 236 245 253 272 300 297 426 419 422 408 393 389 421 415 415 411 392 372 356 362 364 359 393 378 375 366 369 372 370
225 229 240 254 244 249 251 240 238 247 256 282 304 334 326 424 415 412 390 377 371 396 395 413 399 378 363 349 362 354 357 385 373 363 362 359 358 360
252 254 240 244 252 242 233 239 248 251 275 294 337 321 424 440 419 399 379 372 374 374 368 410 386 368 355 348 358 349 392 374 365 355 358 355 354 353
240 257 253 247 232 229 243 248 251 275 296 329 323 425 402 394 409 396 376 419 383 362 354 400 375 361 344 341 353 349 370 357 352 351 350 345 345 344
252 245 229 228 232 244 244 252 285 315 320 327 376 405 389 380 404 391 365 415 382 356 354 391 366 352 344 344 348 349 366 343 344 340 340 339 340 342
231 227 232 240 245 250 276 287 285 333 327 336 411 392 378 405 405 381 362 405 376 356 359 383 357 348 340 349 343 344 363 342 336 332 334 330 331 337
230 242 242 252 267 280 287 318 337 328 334 411 395 378 372 407 389 370 355 342 341 363 360 372 353 345 338 344 340 338 348 342 328 327 332 335 335 339
241 254 267 274 276 281 300 337 334 337 384 401 387 368 369 391 376 362 349 342 334 347 361 365 348 340 343 340 337 334 352 333 328 324 330 330 342 353
266 272 279 271 280 298 331 341 340 335 397 390 374 363 364 363 369 356 345 338 333 362 361 365 348 341 340 334 335 333 355 337 327 327 322 346 345 357
277 269 272 280 301 325 344 335 349 394 388 379 367 367 361 362 354 353 344 336 330 366 363 367 353 340 337 331 329 333 354 331 324 322 338 340 354 351
268 277 274 295 333 346 340 395 397 383 388 379 373 366 358 357 356 348 343 335 329 342 355 366 351 338 333 329 325 328 340 325 324 315 338 336 346 336
275 280 306 342 348 339 413 403 398 403 394 385 381 371 362 352 364 345 342 333 329 335 348 360 342 337 331 331 324 325 329 323 319 331 332 349 338 330
287 326 350 348 335 415 410 425 449 429 411 395 383 373 364 359 378 350 338 330 330 356 345 347 335 336 330 331 324 322 327 328 313 337 324 344 330 334
349 350 337 385 417 428 454 450 438 426 410 399 388 378 371 373 387 359 338 331 329 334 345 342 333 334 334 330 326 321 329 326 309 334 322 340 325 332
343 343 417 428 448 459 454 446 439 432 411 403 394 393 394 397 390 366 345 333 327 327 348 337 332 330 332 328 328 318 327 317 305 332 319 340 322 325